DIAMANT DEB, 2685

Orbit data source: Space-Track

DIAMANT DEB, 2685 is space debris in LEO originally from a launch on Wed, 15 Feb 1967 UTC launched from the Hamma Guira Space Track Range (HGSTR). Debris objects in space refer to the collection of defunct objects orbiting the Earth. Examples of debris include non-operational satellites, rocket bodies, and fragments generated from explosions, collisions, or faulty payload assembly.

Loading next visibility...
Identifier
2685, 1967-014F
Orbit
LEO
Country
Flag of FRFR
Related business
Manufacturer
Unknown
Mission
Spacecraft
Bus & Motor
Unknown
Mass
Unknown
Launch date (UTC)
1967-02-15 (59 years ago)
Launch vehicle
Unknown
Launch site
Hamma Guira Space Track Range (HGSTR)
Object type
Payload
Rocket body
Debris
Shape & HBR
Unknown
Radar Cross Section
Small (<0.1 m²)

Expand to show TLE details & history
Last TLE update: 5 days ago

TLE from 5 days ago
0 DIAMANT DEB
1 02685U 67014F   25253.92453737  .00003230  00000-0  58100-3 0  9991
2 02685  38.9322 124.0723 0360257 326.5309  31.3143 14.32874072927348
Epoch: 2025-09-10T22:11Z
TLE epoch observation values (Epoch: 2025-09-10T22:11:20.028Z)
Latitude
-0.00003°
Longitude
161.04484°
Altitude
563.787 km
Speed
7.695 km/s
True Right ascension
08h 16m 17s
True Declination
0° 00' 00"
Sunlit
Object was in daylight at epoch
Visualization orbit readout
Latitude
Unknown
Longitude
Unknown
Altitude
Unknown
Speed
Unknown
Apparent Right ascension
Unknown
Apparent Declination
Unknown
Sunlit
N/A
Visualization observer readout
Local Sidereal Time
14:08:31
Azimuth
Unknown
Elevation
Unknown
Doppler factor
Unknown
Orbital elements
Apogee altitude
1,042.702 km
Perigee altitude
526.613 km
Semi-major axis
7,162.794 km
Eccentricity
0.03603
Inclination
38.9322°
RAAN
124.0723°
Arg. of periapsis
326.5309°
True anomaly
33.54502°
Mean anomaly
31.3143°
Eccentric anomaly
32.42095°
Mean motion
3.5803 °/min
Orbital period
100.55 mins
BSTAR
0.000581
Loading maneuver chart data...
Computing Atmospheric mass density...
Loading historical data...
Loading historical data...
Loading historical data...
Loading historical data...
Loading historical data...
Loading historical data...
Loading historical data...

Documentation

Showing up to 5 results
|